Regional Weather Roundup
Issued by NWS

Home | Current Version | Previous Version | Graphics & Text | Print | Product List | Glossary On
Versions: 1 2 3 4 5 6 7 8 9 10 11 12 13 14 15 16 17 18 19 20 21 22 23 24 25 26 27 28 29 30 31 32 33 34 35 36 37 38 39 40 41 42 43 44 45 46 47 48 49 50
849
ASUS43 KFSD 262110
RWRSD

WEATHER ROUNDUP FOR SOUTH DAKOTA
NATIONAL WEATHER SERVICE SIOUX FALLS SD
400 PM CDT MON SEP 26 2016

NOTE: "FAIR" INDICATES FEW OR NO CLOUDS BELOW 12,000 FEET WITH NO
SIGNIFICANT WEATHER AND/OR OBSTRUCTIONS TO VISIBILITY.


SDZ001>005-009-010-012>017-262200-
NORTHWEST AND NORTH CENTRAL SOUTH DAKOTA

CITY           SKY/WX    TMP DP  RH WIND       PRES   REMARKS
BUFFALO          N/A     69  40  34 NW21G29   30.14S
FAITH            N/A     72  40  31 NW16G28   30.16S
MOBRIDGE       SUNNY     72  34  24 NW21G26   30.09F
$$

SDZ012>016-024>037-041>051-057-063-072>074-262200-
SOUTHWEST AND SOUTH CENTRAL SOUTH DAKOTA

CITY           SKY/WX    TMP DP  RH WIND       PRES   REMARKS
RAPID CTY ARPT SUNNY     73  40  30 N23G35    30.21S
PIERRE         SUNNY     73  38  27 NW16      30.12F
CUSTER         SUNNY     65  39  38 NW10G18   30.30F
ELLSWORTH AFB  SUNNY     72  40  30 NW22G30   30.21S
PHILIP         SUNNY     77  40  26 NW21G29   30.14F
PINE RIDGE     SUNNY     75  40  28 VRB7G21   30.22S
WINNER         FAIR      75  38  26 NW15G26   30.15F
$$

SDZ004>011-016>023-039-040-262200-
NORTHEAST SOUTH DAKOTA

CITY           SKY/WX    TMP DP  RH WIND       PRES   REMARKS
ABERDEEN       SUNNY     71  29  21 NW20G32   30.06S
WATERTOWN      SUNNY     67  32  27 NW20G26   30.03F
BROOKINGS      SUNNY     68  31  25 W23G30    30.03F
SISSETON         N/A     69  29  22 NW25G36   29.97F
$$

SDZ017-020-022-023-036>040-048>070-262200-
SOUTHEAST SOUTH DAKOTA

CITY           SKY/WX    TMP DP  RH WIND       PRES   REMARKS
SIOUX FALLS    MOSUNNY   71  39  31 NW17G28   30.06F
HURON          SUNNY     73  32  22 NW22G32   30.07S
CHAMBERLAIN    SUNNY     75  40  28 NW16G25   30.12F
MITCHELL       SUNNY     75  34  22 NW17G30   30.09F
YANKTON        SUNNY     72  39  30 NW21G28   30.09S
$$

ABBREVIATIONS USED IN REMARKS
   TC - TEMPERATURE IN CELSIUS
  WCI - WIND CHILL INDEX
   HX - HEAT INDEX
  VSB - VISIBILITY





USA.gov is the U.S. government's official web portal to all federal, state and local government web resources and services.